Date String (YYYY-MM-DD hh:mm:ss) UTC,Instrument flags,Ambient pressure (hPa),Sample flow (lpm),Bypass flow (lpm),Sample temperature (°C),Ambient temperature (°C),ASC tube jacket temperature (°C),LED temperature (°C),Box temperature (°C),Sample RH (%),Span deviation,Mass concentration (μg/m³),Mass concentration (μg/m³),Mass concentration (μg/m³)
DateTimeUTC,F1_M11,P_M11,Q1_M11,Q2_M11,T1_M11,T2_M11,T3_M11,T4_M11,T5_M11,U1_M11,ZSPAN_M11,X0_M11,X2_M11,X1_M11
2023-05-08 01:00:00,,0828.2,5.00,0.00,30.8,29.5,00.0,39.2,32.3,15.1,0000.0,0011.43,0004.43,0003.59
2023-05-08 01:01:00,,0828.2,4.99,0.00,30.8,29.5,00.0,39.2,32.4,15.1,0000.0,0012.35,0004.48,0003.60
2023-05-08 01:02:00,,0828.2,5.00,0.00,30.8,29.5,00.0,39.2,32.4,14.5,0000.0,0012.23,0004.53,0003.60
2023-05-08 01:03:00,,0828.2,5.02,0.00,30.8,29.5,00.0,39.2,32.4,14.6,0000.0,0012.18,0004.50,0003.59
2023-05-08 01:04:00,,0828.2,4.99,0.00,30.8,29.5,00.0,39.2,32.4,14.3,0000.0,0012.05,0004.51,0003.59
2023-05-08 01:05:00,,0828.2,5.00,0.00,30.8,29.5,00.0,39.3,32.4,14.3,0000.0,0011.86,0004.46,0003.59
2023-05-08 01:06:00,,0828.2,5.00,0.00,30.9,29.5,00.0,39.3,32.4,14.4,0000.0,0011.90,0004.42,0003.58
2023-05-08 01:07:00,,0828.2,4.99,0.00,30.9,29.5,00.0,39.3,32.4,14.4,0000.0,0011.87,0004.36,0003.55
2023-05-08 01:08:00,,0828.2,5.00,0.00,30.9,29.5,00.0,39.3,32.4,14.5,0000.0,0011.79,0004.34,0003.54
2023-05-08 01:09:00,,0828.2,5.02,0.00,30.9,29.6,00.0,39.3,32.4,14.2,0000.0,0011.96,0004.35,0003.54
2023-05-08 01:10:00,,0828.2,5.01,0.00,30.9,29.6,00.0,39.3,32.4,14.2,0000.0,0011.82,0004.35,0003.53
2023-05-08 01:11:00,,0828.2,4.99,0.00,30.9,29.6,00.0,39.3,32.4,14.2,0000.0,0011.10,0004.29,0003.53
2023-05-08 01:12:00,,0828.1,4.98,0.00,30.9,28.6,00.0,39.2,32.3,14.0,0000.0,0010.24,0004.22,0003.51
2023-05-08 01:13:00,,0828.1,5.00,0.00,30.8,26.6,00.0,39.1,32.1,13.8,0000.0,0010.98,0004.17,0003.49
2023-05-08 01:14:00,,0828.2,5.00,0.00,30.8,26.2,00.0,39.0,31.9,14.0,0000.0,0011.08,0004.15,0003.45
2023-05-08 01:15:00,,0828.2,5.00,0.00,30.6,26.4,00.0,39.0,31.8,14.2,0000.0,0011.08,0004.12,0003.41
2023-05-08 01:16:00,,0828.2,5.00,0.00,30.6,26.8,00.0,39.0,31.8,14.4,0000.0,0011.26,0004.07,0003.36
2023-05-08 01:17:00,,0828.2,5.00,0.00,30.5,27.2,00.0,39.0,31.9,14.4,0000.0,0010.74,0004.09,0003.31
2023-05-08 01:18:00,,0828.2,4.99,0.00,30.5,27.6,00.0,39.0,31.9,14.4,0000.0,0010.63,0004.07,0003.26
2023-05-08 01:19:00,,0828.2,4.99,0.00,30.5,27.9,00.0,39.0,32.0,14.4,0000.0,0010.69,0004.04,0003.20
2023-05-08 01:20:00,,0828.3,5.01,0.00,30.5,28.2,00.0,39.0,32.0,14.5,0000.0,0010.05,0004.00,0003.15
2023-05-08 01:21:00,,0828.3,5.01,0.00,30.5,28.4,00.0,39.0,32.0,14.6,0000.0,0010.11,0003.96,0003.09
2023-05-08 01:22:00,,0828.3,4.99,0.00,30.5,28.6,00.0,39.0,32.1,14.5,0000.0,0010.13,0003.94,0003.04
2023-05-08 01:23:00,,0828.3,4.99,0.00,30.5,28.8,00.0,39.0,32.1,14.5,0000.0,0010.30,0003.94,0002.96
2023-05-08 01:24:00,,0828.3,5.01,0.00,30.6,28.9,00.0,39.0,32.1,14.3,0000.0,0010.02,0003.91,0002.89
2023-05-08 01:25:00,,0828.4,5.00,0.00,30.6,29.0,00.0,39.0,32.1,14.3,0000.0,0009.87,0003.88,0002.83
2023-05-08 01:26:00,,0828.4,5.00,0.00,30.6,29.1,00.0,39.0,32.1,14.1,0000.0,0009.90,0003.84,0002.78
2023-05-08 01:27:00,,0828.3,5.00,0.00,30.6,29.1,00.0,39.0,32.2,14.2,0000.0,0010.10,0003.82,0002.73
2023-05-08 01:28:00,,0828.3,4.99,0.00,30.6,29.2,00.0,39.0,32.2,14.0,0000.0,0010.24,0003.74,0002.70
2023-05-08 01:29:00,,0828.4,5.00,0.00,30.6,29.2,00.0,39.0,32.2,13.9,0000.0,0010.44,0003.72,0002.69
2023-05-08 01:30:00,,0828.4,5.00,0.00,30.6,29.2,00.0,39.0,32.2,13.9,0000.0,0010.23,0003.65,0002.68
2023-05-08 01:31:00,,0828.4,5.01,0.00,30.6,29.2,00.0,39.0,32.2,13.8,0000.0,0009.74,0003.66,0002.67
2023-05-08 01:32:00,,0828.4,5.00,0.00,30.7,29.3,00.0,39.0,32.2,13.8,0000.0,0009.81,0003.65,0002.67
2023-05-08 01:33:00,,0828.4,5.00,0.00,30.7,29.3,00.0,39.0,32.2,13.8,0000.0,0009.95,0003.64,0002.67
2023-05-08 01:34:00,,0828.5,5.00,0.00,30.7,29.3,00.0,39.0,32.2,13.7,0000.0,0009.87,0003.62,0002.69
2023-05-08 01:35:00,,0828.5,5.00,0.00,30.7,29.4,00.0,39.0,32.3,13.8,0000.0,0009.30,0003.61,0002.69
2023-05-08 01:36:00,,0828.6,5.00,0.00,30.7,29.4,00.0,39.1,32.3,13.9,0000.0,0009.61,0003.62,0002.71
2023-05-08 01:37:00,,0828.5,5.00,0.00,30.7,29.4,00.0,39.1,32.3,13.9,0000.0,0009.95,0003.61,0002.71
2023-05-08 01:38:00,,0828.6,5.00,0.00,30.8,29.4,00.0,39.1,32.3,13.9,0000.0,0010.00,0003.61,0002.71
2023-05-08 01:39:00,,0828.6,5.00,0.00,30.8,29.4,00.0,39.1,32.3,13.8,0000.0,0009.46,0003.61,0002.69
2023-05-08 01:40:00,,0828.6,4.99,0.00,30.8,28.0,00.0,39.0,32.2,13.8,0000.0,0009.32,0003.63,0002.69
2023-05-08 01:41:00,,0828.6,5.01,0.00,30.7,25.8,00.0,38.9,31.7,13.8,0000.0,0009.29,0003.63,0002.67
2023-05-08 01:42:00,,0828.5,5.01,0.00,30.5,25.2,00.0,38.8,31.5,14.0,0000.0,0009.23,0003.61,0002.65
2023-05-08 01:43:00,,0828.6,5.01,0.00,30.4,25.5,00.0,38.8,31.4,14.1,0000.0,0009.10,0003.60,0002.61
2023-05-08 01:44:00,,0828.6,5.00,0.00,30.3,25.9,00.0,38.8,31.4,14.2,0000.0,0008.99,0003.62,0002.59
2023-05-08 01:45:00,,0828.6,5.00,0.00,30.2,26.3,00.0,38.8,31.4,14.3,0000.0,0009.05,0003.64,0002.58
2023-05-08 01:46:00,,0828.6,5.00,0.00,30.2,26.8,00.0,38.7,31.5,14.3,0000.0,0009.04,0003.65,0002.56
2023-05-08 01:47:00,,0828.6,5.00,0.00,30.2,27.2,00.0,38.7,31.6,14.3,0000.0,0008.62,0003.64,0002.54
2023-05-08 01:48:00,,0828.6,5.01,0.00,30.2,27.5,00.0,38.7,31.6,14.3,0000.0,0008.08,0003.62,0002.52
2023-05-08 01:49:00,,0828.7,4.98,0.00,30.2,27.8,00.0,38.7,31.7,14.3,0000.0,0007.48,0003.58,0002.51
2023-05-08 01:50:00,,0828.7,5.00,0.00,30.2,28.0,00.0,38.7,31.7,14.2,0000.0,0007.22,0003.54,0002.51
2023-05-08 01:51:00,,0828.7,5.01,0.00,30.2,28.2,00.0,38.7,31.8,14.3,0000.0,0006.88,0003.47,0002.49
2023-05-08 01:52:00,,0828.6,4.99,0.00,30.2,28.4,00.0,38.7,31.8,14.3,0000.0,0007.41,0003.48,0002.49
2023-05-08 01:53:00,,0828.7,4.99,0.00,30.2,28.5,00.0,38.6,31.8,14.4,0000.0,0007.37,0003.47,0002.48
2023-05-08 01:54:00,,0828.7,5.00,0.00,30.3,28.6,00.0,38.6,31.8,14.3,0000.0,0007.31,0003.46,0002.48
2023-05-08 01:55:00,,0828.7,5.00,0.00,30.3,28.7,00.0,38.7,31.9,14.3,0000.0,0007.24,0003.45,0002.47
2023-05-08 01:56:00,,0828.7,4.99,0.00,30.3,28.8,00.0,38.7,31.9,14.3,0000.0,0007.03,0003.42,0002.44
2023-05-08 01:57:00,,0828.7,5.00,0.00,30.3,28.9,00.0,38.7,31.9,14.2,0000.0,0007.15,0003.42,0002.42
2023-05-08 01:58:00,,0828.7,4.99,0.00,30.4,28.9,00.0,38.7,32.0,14.1,0000.0,0007.29,0003.45,0002.41
2023-05-08 01:59:00,,0828.6,5.00,0.00,30.4,29.0,00.0,38.7,32.0,14.1,0000.0,0007.69,0003.46,0002.42
